TimeEST,TemperatureF,Dew PointF,Humidity,Sea Level PressureIn,VisibilityMPH,Wind Direction,Wind SpeedMPH,Gust SpeedMPH,PrecipitationIn,Events,Conditions,WindDirDegrees,DateUTC
12:53 AM,72.0,60.1,66,30.18,10.0,ENE,16.1,21.9,N/A,,Mostly Cloudy,70,2012-11-30 05:53:00
1:53 AM,72.0,60.1,66,30.17,10.0,ENE,13.8,-,N/A,,Overcast,70,2012-11-30 06:53:00
2:53 AM,72.0,60.1,66,30.15,10.0,NE,10.4,-,N/A,,Mostly Cloudy,50,2012-11-30 07:53:00
3:53 AM,72.0,61.0,68,30.14,10.0,NE,12.7,-,N/A,,Overcast,40,2012-11-30 08:53:00
4:53 AM,73.0,61.0,66,30.15,10.0,ENE,15.0,21.9,N/A,,Overcast,60,2012-11-30 09:53:00
5:53 AM,73.0,60.1,64,30.16,10.0,NE,16.1,21.9,N/A,,Overcast,50,2012-11-30 10:53:00
6:53 AM,73.0,61.0,66,30.17,10.0,ENE,17.3,24.2,N/A,,Overcast,70,2012-11-30 11:53:00
7:53 AM,73.0,62.1,68,30.19,10.0,East,13.8,-,0.00,,Overcast,80,2012-11-30 12:53:00
8:53 AM,71.1,64.0,78,30.21,10.0,ENE,11.5,-,0.00,Rain,Light Rain,70,2012-11-30 13:53:00
9:53 AM,73.9,57.9,57,30.22,10.0,ENE,18.4,26.5,0.00,,Overcast,60,2012-11-30 14:53:00
10:53 AM,75.0,59.0,57,30.21,10.0,ENE,18.4,26.5,N/A,,Overcast,70,2012-11-30 15:53:00
11:53 AM,75.0,57.9,55,30.20,10.0,ENE,19.6,-,N/A,,Mostly Cloudy,70,2012-11-30 16:53:00
12:53 PM,78.1,57.9,50,30.17,10.0,East,21.9,29.9,N/A,,Partly Cloudy,90,2012-11-30 17:53:00
1:53 PM,77.0,57.9,52,30.14,10.0,East,19.6,27.6,N/A,,Scattered Clouds,80,2012-11-30 18:53:00
2:53 PM,77.0,57.0,50,30.14,10.0,East,19.6,27.6,N/A,,Partly Cloudy,80,2012-11-30 19:53:00
3:53 PM,75.0,57.0,53,30.14,10.0,ENE,15.0,-,N/A,,Overcast,70,2012-11-30 20:53:00
4:53 PM,73.9,57.9,57,30.14,10.0,ENE,11.5,-,N/A,,Overcast,70,2012-11-30 21:53:00
5:53 PM,73.9,57.9,57,30.14,10.0,East,10.4,-,N/A,,Mostly Cloudy,80,2012-11-30 22:53:00
6:53 PM,73.9,61.0,64,30.14,10.0,NE,9.2,-,N/A,,Overcast,40,2012-11-30 23:53:00
7:53 PM,71.6,64.4,78,30.14,10.0,NE,9.2,-,N/A,,Overcast,40,2012-12-01 00:53:00
8:53 PM,71.1,64.9,81,30.16,10.0,NE,13.8,-,0.01,,Overcast,40,2012-12-01 01:53:00
9:53 PM,70.0,66.0,87,30.17,10.0,NNE,9.2,-,N/A,,Overcast,30,2012-12-01 02:53:00
10:53 PM,68.0,66.0,93,30.15,8.0,NNW,5.8,-,0.17,Rain,Light Rain,330,2012-12-01 03:53:00
11:53 PM,69.1,66.0,90,30.16,10.0,West,3.5,-,0.00,,Overcast,270,2012-12-01 04:53:00